Lihue, HI

6:45 AM HST on April 29, 2017 (GMT -1000)
Lihue

Weather History for PHLI - November, 2011

Change the Weather History Date:

Saturday, November 5, 2011

  Actual Average Record
Temperature  
Mean Temperature 74 °F 77 °F  
Max Temperature 79 °F 82 °F 85 °F (1974)
Min Temperature 68 °F 72 °F 62 °F (1955)
Degree Days  
Heating Degree Days 0 0  
Month to date heating degree days 0 0  
Since 1 July heating degree days 0 0  
Cooling Degree Days 9 12  
Month to date cooling degree days 54 60  
Year to date cooling degree days 3646 3427  
Growing Degree Days 24 (Base 50)    
Moisture  
Dew Point 68 °F    
Average Humidity 84    
Maximum Humidity 93    
Minimum Humidity 74    
Precipitation  
Precipitation 2.68 in 0.16 in 2.68 in (2011)
Month to date precipitation 3.64 0.75  
Year to date precipitation 38.12 28.14  
Snow  
Snow 0.00 in - - ()
Month to date snowfall 0.0  
Since 1 July snowfall 0.0  
Since 1 September snowfall 0.0  
Snow Depth 0.00 in    
Sea Level Pressure  
Sea Level Pressure 30.05 in    
Wind  
Wind Speed 12 mph (ENE)    
Max Wind Speed 21 mph    
Max Gust Speed 24 mph    
Visibility 7 miles    
Events Fog , Rain , Thunderstorm    
T = Trace of Precipitation, MM = Missing Value Source: NWS Daily Summary

Daily Weather History Graph

Daily Weather History Graph

Search for Another Location

Airport or City:

Trip Planner

Search our weather history database for the weather conditions in past years. The results will help you decide how hot, cold, wet, or windy it might be!

Date:

Astronomy

Nov. 05, 2011 Rise Set
Actual Time 6:43 AM HST 5:58 PM HST
Civil Twilight 6:20 AM HST 6:21 PM HST
Nautical Twilight 5:53 AM HST 6:48 PM HST
Astronomical Twilight 5:27 AM HST 7:14 PM HST
Moon 2:55 PM HST (11/5) 2:34 AM HST (11/5)
Length of Visible Light 12h 01m
Length of Day
11h 15m
Waxing Gibbous, 80% of the Moon is Illuminated
Nov 5
Waxing Gibbous
Nov 10
Full
Nov 18
Last Quarter
Nov 24
New
Dec 1
First Quarter

Hourly Weather History & Observations

Time (HST) Temp. Dew Point Humidity Pressure Visibility Wind Dir Wind Speed Gust Speed Precip Events Conditions
12:36 AM 69.8 °F 66.2 °F 88% 30.06 in 5.0 mi East 11.5 mph 25.3 mph 0.01 in Rain Light Rain
12:44 AM 71.6 °F 66.2 °F 83% 30.06 in 7.0 mi East 6.9 mph - 0.01 in   Mostly Cloudy
12:53 AM 70.0 °F 66.0 °F 87% 30.05 in 7.0 mi East 5.8 mph 25.3 mph 0.05 in Rain Light Rain
1:53 AM 73.0 °F 69.1 °F 87% 30.04 in 10.0 mi ENE 13.8 mph - 0.00 in   Scattered Clouds
2:15 AM 73.4 °F 69.8 °F 88% 30.04 in 10.0 mi ENE 15.0 mph - N/A   Overcast
2:29 AM 73.4 °F 69.8 °F 88% 30.04 in 10.0 mi ENE 13.8 mph - N/A   Scattered Clouds
2:53 AM 73.9 °F 69.1 °F 85% 30.02 in 10.0 mi NE 13.8 mph - N/A   Scattered Clouds
3:49 AM 73.4 °F 68.0 °F 83% 30.03 in 10.0 mi ENE 11.5 mph - N/A   Mostly Cloudy
3:53 AM 73.9 °F 69.1 °F 85% 30.02 in 10.0 mi NE 13.8 mph - N/A   Mostly Cloudy
4:53 AM 73.9 °F 68.0 °F 82% 30.01 in 10.0 mi NE 18.4 mph - N/A   Mostly Cloudy
5:53 AM 73.0 °F 68.0 °F 84% 30.03 in 10.0 mi NNE 13.8 mph - N/A   Overcast
6:44 AM 71.6 °F 68.0 °F 88% 30.05 in 2.0 mi Variable 6.9 mph - 0.02 in Rain Heavy Rain
6:51 AM 71.6 °F 68.0 °F 88% 30.06 in 1.2 mi East 18.4 mph 26.5 mph 0.34 in Rain Heavy Rain
6:53 AM 70.0 °F 66.9 °F 90% 30.06 in 1.5 mi NE 19.6 mph 26.5 mph 0.36 in Rain Heavy Rain
6:59 AM 68.0 °F 66.2 °F 94% 30.06 in 0.8 mi ENE 17.3 mph 26.5 mph 0.18 in Rain , Thunderstorm Heavy Thunderstorms and Rain
7:06 AM 68.0 °F 66.2 °F 94% 30.06 in 0.2 mi East 19.6 mph 32.2 mph 0.67 in Fog , Rain , Thunderstorm Heavy Thunderstorms and Rain
7:22 AM 69.8 °F 66.2 °F 88% 30.06 in 1.0 mi NE 3.5 mph - 1.53 in Rain , Thunderstorm Heavy Thunderstorms and Rain
7:35 AM 69.8 °F 66.2 °F 88% 30.07 in 2.5 mi NNE 3.5 mph - N/A Rain , Thunderstorm Heavy Thunderstorms and Rain
7:50 AM 71.6 °F 69.8 °F 94% 30.08 in 1.8 mi ENE 17.3 mph 23.0 mph 1.68 in Rain Rain
7:53 AM 72.0 °F 69.1 °F 91% 30.08 in 2.0 mi ENE 13.8 mph 23.0 mph 1.69 in Rain Heavy Rain
8:00 AM 73.4 °F 69.8 °F 88% 30.08 in 2.5 mi ENE 9.2 mph - 0.03 in Rain Rain
8:07 AM 73.4 °F 69.8 °F 88% 30.08 in 5.0 mi North 8.1 mph - 0.04 in Rain Light Rain
8:36 AM 73.4 °F 69.8 °F 88% 30.08 in 5.0 mi Variable 3.5 mph - 0.04 in   Haze
8:53 AM 71.1 °F 69.1 °F 93% 30.08 in 5.0 mi Calm Calm - 0.05 in Rain Rain
9:12 AM 73.4 °F 69.8 °F 88% 30.09 in 10.0 mi WNW 5.8 mph - 0.02 in Rain Light Rain
9:50 AM 71.6 °F 68.0 °F 88% 30.08 in 1.8 mi ESE 25.3 mph 32.2 mph 0.04 in Rain Heavy Rain
9:53 AM 70.0 °F 66.9 °F 90% 30.08 in 1.2 mi ESE 26.5 mph 32.2 mph 0.06 in Rain Heavy Rain
10:05 AM 69.8 °F 66.2 °F 88% 30.08 in 0.8 mi SE 17.3 mph - 0.25 in Rain Heavy Rain
10:09 AM 71.6 °F 64.4 °F 78% 30.08 in 1.2 mi SE 9.2 mph 23.0 mph 0.28 in Rain Heavy Rain
10:12 AM 71.6 °F 66.2 °F 83% 30.08 in 2.0 mi ESE 8.1 mph - 0.29 in Rain , Thunderstorm Thunderstorms and Rain
10:14 AM 73.4 °F 68.0 °F 83% 30.08 in 2.5 mi ESE 6.9 mph - 0.29 in Rain , Thunderstorm Light Thunderstorms and Rain
10:16 AM 73.4 °F 69.8 °F 88% 30.08 in 10.0 mi ESE 6.9 mph - 0.29 in Rain , Thunderstorm Light Thunderstorms and Rain
10:53 AM 77.0 °F 70.0 °F 79% 30.08 in 10.0 mi ENE 11.5 mph - 0.30 in   Mostly Cloudy
11:00 AM 78.8 °F 69.8 °F 74% 30.08 in 10.0 mi East 10.4 mph - N/A   Mostly Cloudy
11:53 AM 79.0 °F 70.0 °F 74% 30.06 in 10.0 mi ENE 13.8 mph - N/A   Overcast
12:07 PM 78.8 °F 69.8 °F 74% 30.06 in 10.0 mi East 12.7 mph - N/A   Overcast
12:23 PM 78.8 °F 69.8 °F 74% 30.06 in 10.0 mi East 12.7 mph - N/A   Overcast
12:53 PM 77.0 °F 69.1 °F 76% 30.04 in 10.0 mi East 11.5 mph - N/A   Scattered Clouds
1:53 PM 79.0 °F 69.1 °F 72% 30.01 in 10.0 mi East 9.2 mph - N/A   Partly Cloudy
2:19 PM 77.0 °F 68.0 °F 74% 30.01 in 10.0 mi ENE 8.1 mph - N/A   Mostly Cloudy
2:26 PM 77.0 °F 68.0 °F 74% 30.01 in 10.0 mi ENE 9.2 mph - N/A   Mostly Cloudy
2:53 PM 73.9 °F 66.9 °F 79% 30.00 in 10.0 mi North 5.8 mph - N/A   Overcast
3:00 PM 75.2 °F 68.0 °F 78% 30.00 in 10.0 mi ENE 8.1 mph - N/A   Overcast
3:53 PM 77.0 °F 69.1 °F 76% 29.99 in 10.0 mi ENE 13.8 mph - N/A   Overcast
4:39 PM 75.2 °F 69.8 °F 83% 30.00 in 10.0 mi ENE 15.0 mph - N/A   Overcast
4:53 PM 75.9 °F 70.0 °F 82% 29.99 in 10.0 mi ENE 13.8 mph - N/A   Overcast
5:49 PM 75.2 °F 69.8 °F 83% 30.02 in 10.0 mi ENE 18.4 mph - 0.00 in Thunderstorm Thunderstorm
5:53 PM 75.0 °F 70.0 °F 84% 30.01 in 10.0 mi East 16.1 mph - 0.00 in Thunderstorm Thunderstorm
6:53 PM 75.2 °F 69.8 °F 83% 30.03 in 10.0 mi ENE 17.3 mph - N/A   Mostly Cloudy
7:25 PM 71.6 °F 64.4 °F 78% 30.06 in 10.0 mi NNW 11.5 mph 18.4 mph N/A   Overcast
7:53 PM 71.1 °F 64.9 °F 81% 30.06 in 10.0 mi WNW 6.9 mph - N/A   Overcast
8:53 PM 71.1 °F 66.0 °F 84% 30.07 in 10.0 mi NNW 3.5 mph - 0.00 in Rain Light Rain
9:45 PM 71.6 °F 68.0 °F 88% 30.09 in 10.0 mi North 8.1 mph - 0.05 in   Overcast
9:53 PM 71.1 °F 68.0 °F 90% 30.08 in 10.0 mi North 6.9 mph - 0.05 in   Overcast
10:53 PM 71.1 °F 68.0 °F 90% 30.09 in 10.0 mi North 9.2 mph - 0.00 in   Overcast
11:30 PM 69.8 °F 68.0 °F 94% 30.08 in 2.5 mi NNW 5.8 mph - 0.03 in Rain Heavy Rain
11:44 PM 69.8 °F 68.0 °F 94% 30.09 in 10.0 mi NNW 6.9 mph - 0.11 in   Overcast
11:53 PM 70.0 °F 69.1 °F 97% 30.08 in 10.0 mi NNW 6.9 mph - 0.11 in   Overcast